Tucson, AZ

12:08 PM MST on November 20, 2019 (GMT -0700)
Tucson International

Weather History for KTUS - July, 2019

Change the Weather History Date:

Thursday, July 25, 2019

  Actual Average Record
Temperature  
Mean Temperature 88 °F 86 °F  
Max Temperature 102 °F 98 °F 110 °F (2018)
Min Temperature 75 °F 75 °F 65 °F (1913)
Degree Days  
Heating Degree Days 0 0  
Month to date heating degree days 0  
Since 1 June heating degree days 0  
Since 1 July heating degree days 0  
Cooling Degree Days 24 21  
Month to date cooling degree days 560  
Year to date cooling degree days 1656  
Since 1 June cooling degree days 1154  
Growing Degree Days 38 (Base 50)    
Moisture  
Dew Point 63 °F    
Average Humidity 46    
Maximum Humidity 71    
Minimum Humidity 16    
Precipitation  
Precipitation 0.00 in 0.09 in 1.27 in (1981)
Month to date precipitation 1.68  
Year to date precipitation 4.95  
Sea Level Pressure  
Sea Level Pressure 29.89 in    
Wind  
Wind Speed 6 mph (NNW)    
Max Wind Speed 17 mph    
Max Gust Speed 24 mph    
Visibility 10 miles    
Events Thunderstorm    
T = Trace of Precipitation, MM = Missing Value Source: NWS Daily Summary

Daily Weather History Graph

Daily Weather History Graph

Search for Another Location

Airport or City:

Astronomy

Jul. 25, 2019 Rise Set
Actual Time 5:34 AM MST 7:26 PM MST
Civil Twilight 5:07 AM MST 7:53 PM MST
Nautical Twilight 4:34 AM MST 8:25 PM MST
Astronomical Twilight 3:59 AM MST 9:00 PM MST
Moon 12:08 AM MST (7/25) 1:20 PM MST (7/25)
Length of Visible Light 14h 46m
Length of Day
13h 51m
Last Quarter, 43% of the Moon is Illuminated
Jul 25
Last Quarter
Jul 31
New
Aug 7
First Quarter
Aug 15
Full
Aug 23
Last Quarter

Hourly Weather History & Observations

Time (MST) Temp. Heat Index Dew Point Humidity Pressure Visibility Wind Dir Wind Speed Gust Speed Precip Events Conditions
12:53 AM 80.1 °F 82.3 °F 66.9 °F 64% 29.88 in 10.0 mi Calm Calm - N/A   Clear
1:53 AM 78.1 °F - 66.0 °F 66% 29.87 in 10.0 mi South 3.5 mph - N/A   Clear
2:53 AM 78.1 °F - 64.9 °F 64% 29.87 in 10.0 mi SSE 6.9 mph - N/A   Clear
3:53 AM 77.0 °F - 66.0 °F 69% 29.88 in 10.0 mi SSE 5.8 mph - N/A   Clear
4:53 AM 75.9 °F - 64.9 °F 69% 29.91 in 10.0 mi North - - N/A   Clear
4:56 AM 75.9 °F - 64.9 °F 69% 30.05 in 10.0 mi SSE 6.9 mph - N/A   Clear
5:53 AM 75.0 °F - 64.9 °F 71% 29.94 in 10.0 mi SSE 6.9 mph - N/A   Clear
6:53 AM 78.1 °F - 66.0 °F 66% 29.95 in 10.0 mi SE 6.9 mph - N/A   Clear
7:53 AM 82.9 °F 84.6 °F 64.9 °F 54% 29.95 in 10.0 mi ESE 3.5 mph - N/A   Clear
8:53 AM 84.9 °F 86.1 °F 64.0 °F 49% 29.94 in 10.0 mi East 3.5 mph - N/A   Clear
9:53 AM 88.0 °F 88.7 °F 63.0 °F 43% 29.94 in 10.0 mi Calm Calm - N/A   Clear
10:53 AM 93.0 °F 94.6 °F 64.0 °F 38% 29.91 in 10.0 mi North 5.8 mph - N/A   Clear
11:53 AM 93.0 °F 94.2 °F 63.0 °F 37% 29.90 in 10.0 mi North 4.6 mph - N/A   Clear
12:53 PM 97.0 °F 96.9 °F 60.1 °F 29% 29.86 in 10.0 mi WNW 11.5 mph - N/A   Clear
1:53 PM 100.0 °F 101.8 °F 62.1 °F 29% 29.83 in 10.0 mi NW 8.1 mph - N/A   Clear
2:53 PM 100.9 °F 101.6 °F 60.1 °F 26% 29.80 in 10.0 mi NW 10.4 mph 17.3 mph N/A   Partly Cloudy
3:23 PM 99.0 °F 99.5 °F 60.1 °F 28% 29.96 in 10.0 mi North 16.1 mph 24.2 mph N/A Thunderstorm Scattered Clouds
3:38 PM 99.0 °F 99.5 °F 60.1 °F 28% 29.96 in 10.0 mi North 16.1 mph 24.2 mph N/A   Mostly Cloudy
3:53 PM 99.0 °F 99.5 °F 60.1 °F 28% 29.79 in 10.0 mi North 16.1 mph 24.2 mph N/A   Scattered Clouds
4:53 PM 99.0 °F 98.1 °F 57.0 °F 25% 29.79 in 10.0 mi NNW 8.1 mph - N/A   Clear
5:53 PM 89.1 °F 89.0 °F 61.0 °F 39% 29.82 in 10.0 mi West 17.3 mph - N/A   Clear
6:53 PM 88.0 °F 87.9 °F 61.0 °F 40% 29.84 in 10.0 mi North - - N/A   Clear
7:53 PM 86.0 °F 86.8 °F 63.0 °F 46% 29.86 in 10.0 mi North - - N/A   Clear
8:53 PM 86.0 °F 87.3 °F 64.0 °F 48% 29.88 in 10.0 mi Calm Calm - N/A   Clear
9:53 PM 82.9 °F 84.0 °F 63.0 °F 51% 29.91 in 10.0 mi North - - N/A   Clear
10:53 PM 82.9 °F 84.0 °F 63.0 °F 51% 29.90 in 10.0 mi SW 6.9 mph - N/A   Clear
11:53 PM 84.0 °F 84.9 °F 63.0 °F 49% 29.89 in 10.0 mi Calm Calm - N/A   Clear